NOZ39A ENGM-ENAN

Flight info

Callsign NOZ39A
Flight time 1h 26m
Altitude 36000
Route RIBBE DCT GIGNI/N0462F370 DCT SOMUB DCT IBVIS
Aircraft B738/M-SDE2E3GHIJ1LRWXY/LB1

Departure

Time 2026-05-05 11:06
Airport Oslo-Gardermoen International Airport (ENGM)

Arrival

Time 2026-05-05 12:32
Airport Andøya Airport, Andenes (ENAN)
Time Latitude Longitude Altitude Speed Heading
2026-05-05 10:51 60.19391 11.10647 684 ft 0 kts 196°
2026-05-05 10:57 60.19394 11.10648 679 ft 3 kts 196°
2026-05-05 10:57 60.19419 11.10663 683 ft 4 kts 196°
2026-05-05 10:57 60.19445 11.10678 684 ft 4 kts 196°
2026-05-05 10:58 60.19471 11.10693 680 ft 4 kts 188°
2026-05-05 10:58 60.19493 11.10686 682 ft 4 kts 131°
2026-05-05 10:58 60.19501 11.10662 682 ft 2 kts 106°
2026-05-05 10:58 60.19495 11.10700 682 ft 4 kts 106°
2026-05-05 10:59 60.19490 11.10733 679 ft 3 kts 106°
2026-05-05 10:59 60.19490 11.10739 682 ft 1 kts 106°
2026-05-05 11:01 60.19487 11.10756 682 ft 7 kts 106°
2026-05-05 11:01 60.19479 11.10815 682 ft 11 kts 106°
2026-05-05 11:02 60.19475 11.10842 681 ft 12 kts 106°
2026-05-05 11:02 60.19451 11.11012 679 ft 15 kts 106°
2026-05-05 11:02 60.19427 11.11255 682 ft 19 kts 66°
2026-05-05 11:02 60.19547 11.11354 681 ft 19 kts 15°
2026-05-05 11:03 60.19671 11.11422 682 ft 18 kts 16°
2026-05-05 11:03 60.19790 11.11494 683 ft 18 kts 16°
2026-05-05 11:03 60.19906 11.11560 684 ft 17 kts 15°
2026-05-05 11:03 60.20024 11.11629 685 ft 19 kts 17°
2026-05-05 11:04 60.20146 11.11702 684 ft 18 kts 22°
2026-05-05 11:04 60.20159 11.11914 685 ft 14 kts 106°
2026-05-05 11:04 60.20133 11.12091 687 ft 13 kts 106°
2026-05-05 11:04 60.20080 11.12220 683 ft 13 kts 173°
2026-05-05 11:05 60.20032 11.12198 688 ft 0 kts 196°
2026-05-05 11:05 60.19875 11.12105 682 ft 60 kts 197°
2026-05-05 11:05 60.19238 11.11738 682 ft 128 kts 196°
2026-05-05 11:05 60.18230 11.11158 843 ft 166 kts 197°
2026-05-05 11:06 60.17100 11.10572 1640 ft 167 kts 196°
2026-05-05 11:06 60.15946 11.10022 2476 ft 174 kts 197°
2026-05-05 11:06 60.14697 11.09402 3103 ft 196 kts 196°
2026-05-05 11:06 60.13230 11.09436 3369 ft 230 kts 168°
2026-05-05 11:07 60.11789 11.10981 3846 ft 247 kts 138°
2026-05-05 11:07 60.10627 11.13549 4566 ft 250 kts 131°
2026-05-05 11:07 60.09482 11.16206 4933 ft 254 kts 132°
2026-05-05 11:07 60.08330 11.18862 4965 ft 252 kts 131°
2026-05-05 11:08 60.07489 11.21985 5309 ft 266 kts 101°
2026-05-05 11:08 60.07542 11.25737 5954 ft 277 kts 71°
2026-05-05 11:08 60.08464 11.29064 6886 ft 273 kts 46°
2026-05-05 11:08 60.09813 11.31742 7759 ft 276 kts 40°
2026-05-05 11:09 60.11230 11.34404 8612 ft 281 kts 40°
2026-05-05 11:09 60.12657 11.37107 9550 ft 284 kts 41°
2026-05-05 11:09 60.14097 11.39875 10315 ft 292 kts 41°
2026-05-05 11:09 60.15597 11.42770 10872 ft 305 kts 41°
2026-05-05 11:10 60.17267 11.45383 11662 ft 304 kts 22°
2026-05-05 11:10 60.19232 11.46913 12544 ft 304 kts 15°
2026-05-05 11:10 60.21248 11.48318 13364 ft 309 kts 15°
2026-05-05 11:10 60.23295 11.49743 14109 ft 314 kts 14°
2026-05-05 11:11 60.25378 11.51211 14778 ft 321 kts 14°
2026-05-05 11:11 60.27497 11.52723 15458 ft 326 kts 15°
2026-05-05 11:11 60.29656 11.54278 16136 ft 332 kts 14°
2026-05-05 11:11 60.31848 11.55875 16768 ft 339 kts 13°
2026-05-05 11:12 60.34092 11.57411 17410 ft 340 kts
2026-05-05 11:12 60.36411 11.57978 18037 ft 333 kts 350°
2026-05-05 11:12 60.38735 11.57785 18666 ft 335 kts 347°
2026-05-05 11:12 60.41069 11.57507 19317 ft 338 kts 346°
2026-05-05 11:13 60.43430 11.57225 19932 ft 342 kts 345°
2026-05-05 11:13 60.45821 11.56957 20530 ft 346 kts 345°
2026-05-05 11:13 60.48247 11.56696 21168 ft 351 kts 344°
2026-05-05 11:13 60.50696 11.56459 21798 ft 353 kts 343°
2026-05-05 11:14 60.53172 11.56217 22408 ft 358 kts 343°
2026-05-05 11:14 60.55634 11.55980 23131 ft 360 kts 345°
2026-05-05 11:14 60.58156 11.55743 23623 ft 366 kts 345°
2026-05-05 11:14 60.60712 11.55506 24084 ft 370 kts 345°
2026-05-05 11:15 60.63291 11.55270 24586 ft 372 kts 345°
2026-05-05 11:15 60.65887 11.55033 25062 ft 375 kts 345°
2026-05-05 11:15 60.68507 11.54794 25523 ft 378 kts 345°
2026-05-05 11:15 60.71147 11.54552 25966 ft 381 kts 345°
2026-05-05 11:16 60.73811 11.54306 26406 ft 385 kts 345°
2026-05-05 11:16 60.76497 11.54057 26866 ft 388 kts 345°
2026-05-05 11:16 60.79201 11.53808 27308 ft 391 kts 345°
2026-05-05 11:16 60.81927 11.53557 27716 ft 394 kts 345°
2026-05-05 11:17 60.84675 11.53301 28234 ft 396 kts 346°
2026-05-05 11:17 60.87446 11.53039 28557 ft 402 kts 347°
2026-05-05 11:17 60.90251 11.52774 28917 ft 406 kts 347°
2026-05-05 11:17 60.93077 11.52510 29327 ft 408 kts 347°
2026-05-05 11:18 60.95924 11.52244 29735 ft 411 kts 347°
2026-05-05 11:18 60.98789 11.51976 30069 ft 414 kts 347°
2026-05-05 11:18 61.01672 11.51704 30356 ft 417 kts 347°
2026-05-05 11:18 61.04580 11.51431 30652 ft 419 kts 347°
2026-05-05 11:19 61.07496 11.51157 30951 ft 421 kts 348°
2026-05-05 11:19 61.10435 11.50880 31248 ft 424 kts 348°
2026-05-05 11:19 61.13390 11.50601 31520 ft 426 kts 348°
2026-05-05 11:19 61.16364 11.50318 31794 ft 429 kts 348°
2026-05-05 11:20 61.19350 11.50034 32067 ft 431 kts 348°
2026-05-05 11:20 61.22356 11.49747 32334 ft 433 kts 348°
2026-05-05 11:20 61.25375 11.49460 32589 ft 436 kts 349°
2026-05-05 11:20 61.28418 11.49169 32852 ft 438 kts 349°
2026-05-05 11:21 61.31468 11.48878 33119 ft 440 kts 349°
2026-05-05 11:21 61.34536 11.48580 33367 ft 443 kts 349°
2026-05-05 11:21 61.37620 11.48285 33610 ft 445 kts 349°
2026-05-05 11:21 61.40717 11.48118 33831 ft 449 kts 352°
2026-05-05 11:22 61.43856 11.48118 34057 ft 452 kts 353°
2026-05-05 11:22 61.47011 11.48180 34218 ft 455 kts 353°
2026-05-05 11:22 61.50189 11.48250 34385 ft 458 kts 354°
2026-05-05 11:22 61.53380 11.48308 34577 ft 459 kts 353°
2026-05-05 11:23 61.56576 11.48346 34781 ft 460 kts 353°
2026-05-05 11:23 61.59779 11.48370 34967 ft 461 kts 353°
2026-05-05 11:23 61.62996 11.48383 35138 ft 463 kts 353°
2026-05-05 11:23 61.66224 11.48392 35302 ft 465 kts 353°
2026-05-05 11:24 61.69466 11.48401 35467 ft 467 kts 354°
2026-05-05 11:24 61.72714 11.48410 35653 ft 467 kts 354°
2026-05-05 11:24 61.75968 11.48419 35862 ft 468 kts 354°
2026-05-05 11:25 61.82537 11.48439 35876 ft 475 kts 354°
2026-05-05 11:25 61.89171 11.48462 35862 ft 478 kts 355°
2026-05-05 11:26 61.95834 11.48487 35860 ft 479 kts 355°
2026-05-05 11:26 62.02464 11.48776 35852 ft 482 kts 359°
2026-05-05 11:27 62.09147 11.50255 35861 ft 484 kts
2026-05-05 11:27 62.15821 11.51994 35858 ft 482 kts
2026-05-05 11:28 62.22481 11.53630 35857 ft 481 kts
2026-05-05 11:28 62.29125 11.55179 35854 ft 479 kts
2026-05-05 11:29 62.35748 11.56704 35882 ft 478 kts
2026-05-05 11:29 62.42358 11.58235 35869 ft 478 kts
2026-05-05 11:30 62.48966 11.59777 35851 ft 477 kts
2026-05-05 11:30 62.55554 11.61324 35848 ft 476 kts
2026-05-05 11:31 62.62143 11.62876 35809 ft 476 kts
2026-05-05 11:31 62.68722 11.64429 35821 ft 476 kts
2026-05-05 11:32 62.75314 11.66000 35836 ft 477 kts
2026-05-05 11:32 62.81922 11.67581 35851 ft 478 kts
2026-05-05 11:33 62.88533 11.69164 35850 ft 478 kts
2026-05-05 11:33 62.95148 11.70760 35898 ft 478 kts
2026-05-05 11:34 63.01768 11.72363 35878 ft 479 kts
2026-05-05 11:34 63.08404 11.73978 35866 ft 480 kts
2026-05-05 11:35 63.14994 11.75587 35863 ft 480 kts
2026-05-05 11:35 63.21667 11.77229 35865 ft 479 kts
2026-05-05 11:36 63.28290 11.78862 35873 ft 479 kts
2026-05-05 11:36 63.34858 11.80512 35859 ft 479 kts
2026-05-05 11:37 63.41412 11.83496 35856 ft 481 kts 10°
2026-05-05 11:37 63.47913 11.87152 35851 ft 482 kts 11°
2026-05-05 11:38 63.54412 11.90793 35844 ft 482 kts 10°
2026-05-05 11:38 63.60923 11.94335 35850 ft 481 kts 10°
2026-05-05 11:39 63.67434 11.97836 35839 ft 481 kts 10°
2026-05-05 11:39 63.73945 12.01345 35835 ft 481 kts 10°
2026-05-05 11:40 63.80458 12.04875 35825 ft 482 kts 10°
2026-05-05 11:40 63.86971 12.08426 35849 ft 481 kts 10°
2026-05-05 11:41 63.93487 12.11996 35833 ft 482 kts 10°
2026-05-05 11:41 64.00002 12.15582 35804 ft 481 kts 10°
2026-05-05 11:42 64.06507 12.19181 35873 ft 481 kts 11°
2026-05-05 11:42 64.13005 12.22793 35865 ft 480 kts 11°
2026-05-05 11:43 64.19493 12.26415 35850 ft 480 kts 11°
2026-05-05 11:43 64.25977 12.30055 35821 ft 479 kts 11°
2026-05-05 11:44 64.32455 12.33707 35797 ft 479 kts 11°
2026-05-05 11:44 64.38931 12.37378 35795 ft 479 kts 11°
2026-05-05 11:45 64.45403 12.41064 35805 ft 479 kts 11°
2026-05-05 11:45 64.51878 12.44768 35787 ft 479 kts 11°
2026-05-05 11:46 64.57259 12.47860 35783 ft 479 kts 11°
2026-05-05 11:46 64.63733 12.51596 35770 ft 479 kts 11°
2026-05-05 11:47 64.71251 12.55957 35762 ft 479 kts 11°
2026-05-05 11:47 64.77713 12.59731 35784 ft 479 kts 11°
2026-05-05 11:48 64.86360 12.64807 35757 ft 478 kts 11°
2026-05-05 11:48 64.92821 12.68622 35761 ft 478 kts 11°
2026-05-05 11:49 64.99276 12.72449 35744 ft 478 kts 11°
2026-05-05 11:49 65.05734 12.76303 35742 ft 479 kts 11°
2026-05-05 11:50 65.12186 12.80167 35742 ft 478 kts 12°
2026-05-05 11:50 65.18641 12.84053 35741 ft 479 kts 12°
2026-05-05 11:51 65.25087 12.87954 35733 ft 479 kts 12°
2026-05-05 11:51 65.31542 12.91883 35722 ft 479 kts 12°
2026-05-05 11:52 65.38002 12.95831 35745 ft 479 kts 12°
2026-05-05 11:52 65.44459 12.99798 35721 ft 479 kts 12°
2026-05-05 11:53 65.50909 13.03776 35719 ft 479 kts 12°
2026-05-05 11:53 65.57352 13.07780 35698 ft 478 kts 12°
2026-05-05 11:54 65.63748 13.11773 35705 ft 478 kts 12°
2026-05-05 11:54 65.70183 13.15807 35727 ft 477 kts 12°
2026-05-05 11:55 65.76601 13.19858 35723 ft 477 kts 12°
2026-05-05 11:55 65.83023 13.23926 35723 ft 477 kts 12°
2026-05-05 11:56 65.89438 13.28008 35718 ft 476 kts 12°
2026-05-05 11:56 65.95852 13.32115 35703 ft 476 kts 12°
2026-05-05 11:57 66.02259 13.36240 35712 ft 476 kts 13°
2026-05-05 11:57 66.08680 13.40396 35684 ft 477 kts 13°
2026-05-05 11:58 66.15102 13.44571 35678 ft 477 kts 13°
2026-05-05 11:58 66.21520 13.48765 35671 ft 477 kts 13°
2026-05-05 11:59 66.27941 13.52986 35666 ft 477 kts 13°
2026-05-05 11:59 66.34351 13.57219 35674 ft 477 kts 13°
2026-05-05 12:00 66.40563 13.61346 35668 ft 477 kts 13°
2026-05-05 12:00 66.46693 13.65443 35657 ft 476 kts 13°
2026-05-05 12:01 66.53075 13.69722 35664 ft 476 kts 13°
2026-05-05 12:01 66.59471 13.74030 35654 ft 476 kts 13°
2026-05-05 12:02 66.65856 13.78362 35660 ft 476 kts 13°
2026-05-05 12:02 66.72251 13.82724 35654 ft 476 kts 13°
2026-05-05 12:03 66.78637 13.87102 35653 ft 475 kts 13°
2026-05-05 12:03 66.85016 13.91499 35648 ft 475 kts 13°
2026-05-05 12:04 66.91392 13.95916 35647 ft 475 kts 13°
2026-05-05 12:04 66.97765 14.00362 35649 ft 475 kts 13°
2026-05-05 12:05 67.04142 14.04824 35641 ft 475 kts 13°
2026-05-05 12:05 67.10533 14.09326 35633 ft 476 kts 13°
2026-05-05 12:06 67.16912 14.13842 35638 ft 476 kts 13°
2026-05-05 12:06 67.23258 14.18361 35645 ft 476 kts 14°
2026-05-05 12:07 67.29643 14.22934 35639 ft 476 kts 14°
2026-05-05 12:07 67.36019 14.27523 35637 ft 476 kts 14°
2026-05-05 12:08 67.42408 14.32147 35634 ft 477 kts 13°
2026-05-05 12:08 67.48792 14.36793 35636 ft 477 kts 14°
2026-05-05 12:09 67.52010 14.39142 35133 ft 484 kts 14°
2026-05-05 12:09 67.55243 14.41513 34548 ft 481 kts 14°
2026-05-05 12:09 67.58469 14.43886 33885 ft 481 kts 14°
2026-05-05 12:09 67.61691 14.46264 33081 ft 481 kts 14°
2026-05-05 12:10 67.64903 14.48639 32437 ft 478 kts 15°
2026-05-05 12:10 67.68085 14.50999 31546 ft 478 kts 15°
2026-05-05 12:10 67.71265 14.53364 30865 ft 475 kts 15°
2026-05-05 12:10 67.74433 14.55726 30027 ft 474 kts 15°
2026-05-05 12:11 67.77593 14.58089 29370 ft 469 kts 16°
2026-05-05 12:11 67.80696 14.60415 28639 ft 463 kts 16°
2026-05-05 12:11 67.83769 14.62723 28070 ft 455 kts 16°
2026-05-05 12:11 67.86791 14.65003 27472 ft 448 kts 16°
2026-05-05 12:12 67.89763 14.67253 26902 ft 441 kts 16°
2026-05-05 12:12 67.92637 14.69895 26311 ft 435 kts 25°
2026-05-05 12:12 67.95283 14.73655 25788 ft 428 kts 30°
2026-05-05 12:12 67.97858 14.77556 25212 ft 423 kts 30°
2026-05-05 12:13 68.00397 14.81414 24667 ft 418 kts 30°
2026-05-05 12:13 68.02918 14.85235 24130 ft 414 kts 30°
2026-05-05 12:13 68.05407 14.88997 23602 ft 409 kts 30°
2026-05-05 12:13 68.07872 14.92715 23044 ft 405 kts 29°
2026-05-05 12:14 68.10315 14.96396 22444 ft 400 kts 30°
2026-05-05 12:14 68.12723 15.00026 21919 ft 394 kts 30°
2026-05-05 12:14 68.15099 15.03613 21413 ft 389 kts 30°
2026-05-05 12:14 68.17442 15.07156 20910 ft 384 kts 30°
2026-05-05 12:15 68.19757 15.10667 20396 ft 380 kts 30°
2026-05-05 12:15 68.22043 15.14146 19887 ft 376 kts 30°
2026-05-05 12:15 68.24309 15.17598 19395 ft 372 kts 30°
2026-05-05 12:15 68.26555 15.21030 18895 ft 370 kts 30°
2026-05-05 12:16 68.28785 15.24444 18406 ft 367 kts 31°
2026-05-05 12:16 68.30996 15.27837 17915 ft 364 kts 30°
2026-05-05 12:16 68.33180 15.31196 17383 ft 362 kts 30°
2026-05-05 12:16 68.35354 15.34548 16902 ft 358 kts 30°
2026-05-05 12:17 68.37434 15.37763 16449 ft 354 kts 30°
2026-05-05 12:17 68.39559 15.41053 15980 ft 350 kts 30°
2026-05-05 12:17 68.41665 15.44317 15510 ft 347 kts 30°
2026-05-05 12:17 68.43751 15.47560 15055 ft 344 kts 30°
2026-05-05 12:18 68.45816 15.50780 14578 ft 341 kts 30°
2026-05-05 12:18 68.47866 15.53982 14137 ft 338 kts 30°
2026-05-05 12:18 68.49908 15.57179 13667 ft 339 kts 30°
2026-05-05 12:18 68.51960 15.60398 13177 ft 341 kts 30°
2026-05-05 12:19 68.54021 15.63638 12673 ft 344 kts 30°
2026-05-05 12:19 68.56105 15.66920 12203 ft 347 kts 30°
2026-05-05 12:19 68.58197 15.70222 11719 ft 345 kts 30°
2026-05-05 12:19 68.60260 15.73487 11243 ft 341 kts 30°
2026-05-05 12:20 68.62298 15.76718 10776 ft 337 kts 30°
2026-05-05 12:20 68.64316 15.79922 10397 ft 331 kts 30°
2026-05-05 12:20 68.66272 15.83035 10276 ft 318 kts 30°
2026-05-05 12:20 68.68127 15.85993 10133 ft 307 kts 30°
2026-05-05 12:21 68.69943 15.88896 9996 ft 297 kts 30°
2026-05-05 12:21 68.71722 15.91742 9877 ft 287 kts 30°
2026-05-05 12:21 68.73399 15.94429 9747 ft 278 kts 30°
2026-05-05 12:21 68.75041 15.97064 9632 ft 270 kts 30°
2026-05-05 12:22 68.76647 15.99651 9391 ft 267 kts 30°
2026-05-05 12:22 68.78240 16.02221 9133 ft 264 kts 31°
2026-05-05 12:22 68.79821 16.04773 8844 ft 262 kts 31°
2026-05-05 12:22 68.81379 16.07295 8566 ft 261 kts 31°
2026-05-05 12:23 68.82936 16.09817 8290 ft 259 kts 31°
2026-05-05 12:23 68.84487 16.12333 8018 ft 257 kts 31°
2026-05-05 12:23 68.86023 16.14832 7748 ft 255 kts 31°
2026-05-05 12:23 68.87552 16.17321 7477 ft 254 kts 31°
2026-05-05 12:24 68.89069 16.19796 7215 ft 253 kts 31°
2026-05-05 12:24 68.90589 16.22278 6989 ft 256 kts 31°
2026-05-05 12:24 68.92137 16.24811 6744 ft 261 kts 31°
2026-05-05 12:24 68.93704 16.27378 6478 ft 262 kts 31°
2026-05-05 12:25 68.95268 16.29946 6223 ft 260 kts 31°
2026-05-05 12:25 68.96821 16.32500 5965 ft 258 kts 31°
2026-05-05 12:25 68.98361 16.35037 5692 ft 256 kts 30°
2026-05-05 12:25 68.99890 16.37558 5420 ft 254 kts 30°
2026-05-05 12:26 69.01407 16.40060 5148 ft 252 kts 30°
2026-05-05 12:26 69.02909 16.42544 4884 ft 250 kts 30°
2026-05-05 12:26 69.04399 16.45013 4694 ft 247 kts 30°
2026-05-05 12:26 69.05888 16.47302 4650 ft 245 kts 20°
2026-05-05 12:27 69.07562 16.47523 4321 ft 245 kts 344°
2026-05-05 12:27 69.09138 16.45619 3923 ft 250 kts 332°
2026-05-05 12:27 69.10667 16.43191 3481 ft 255 kts 331°
2026-05-05 12:27 69.12225 16.40730 3044 ft 259 kts 332°
2026-05-05 12:28 69.13790 16.38310 2627 ft 262 kts 332°
2026-05-05 12:28 69.15362 16.35884 2526 ft 251 kts 332°
2026-05-05 12:28 69.16851 16.33574 2496 ft 232 kts 332°
2026-05-05 12:28 69.18202 16.31480 2467 ft 212 kts 333°
2026-05-05 12:29 69.19451 16.29547 2186 ft 201 kts 334°
2026-05-05 12:29 69.20644 16.27699 1931 ft 186 kts 335°
2026-05-05 12:29 69.21731 16.26012 1711 ft 178 kts 335°
2026-05-05 12:29 69.22813 16.24346 1483 ft 177 kts 335°
2026-05-05 12:30 69.23893 16.22675 1250 ft 175 kts 335°
2026-05-05 12:30 69.24920 16.21093 1044 ft 159 kts 336°
2026-05-05 12:30 69.25863 16.19640 778 ft 144 kts 338°
2026-05-05 12:30 69.26731 16.18359 653 ft 143 kts 338°
2026-05-05 12:31 69.27571 16.17074 425 ft 133 kts 337°
2026-05-05 12:31 69.28354 16.15809 211 ft 129 kts 337°
2026-05-05 12:31 69.29115 16.14591 39 ft 122 kts 336°
2026-05-05 12:31 69.29756 16.13554 29 ft 86 kts 332°
2026-05-05 12:32 69.30144 16.12927 30 ft 43 kts 330°
2026-05-05 12:32 69.30338 16.12606 34 ft 30 kts 328°
2026-05-05 12:32 69.30510 16.12323 35 ft 27 kts 328°
2026-05-05 12:32 69.30644 16.12098 36 ft 19 kts 336°
2026-05-05 12:33 69.30740 16.12257 29 ft 19 kts 49°
2026-05-05 12:33 69.30859 16.12383 31 ft 16 kts 10°
2026-05-05 12:33 69.30933 16.12482 33 ft 11 kts 46°
2026-05-05 12:33 69.30971 16.12568 31 ft 11 kts 13°
2026-05-05 12:34 69.31024 16.12477 28 ft 7 kts 277°
2026-05-05 12:34 69.31021 16.12447 28 ft 0 kts 250°